TimeCST,TemperatureF,Dew PointF,Humidity,Sea Level PressureIn,VisibilityMPH,Wind Direction,Wind SpeedMPH,Gust SpeedMPH,PrecipitationIn,Events,Conditions,WindDirDegrees,DateUTC
12:11 AM,51.8,46.4,82,29.94,10.0,NW,10.4,-,N/A,,Overcast,310,2012-01-27 06:11:00
12:54 AM,50.0,44.1,80,29.95,10.0,NW,8.1,-,N/A,,Partly Cloudy,310,2012-01-27 06:54:00
1:54 AM,48.9,43.0,80,29.96,10.0,WNW,6.9,-,N/A,,Clear,300,2012-01-27 07:54:00
2:54 AM,46.9,43.0,86,29.97,10.0,WNW,4.6,-,N/A,,Clear,300,2012-01-27 08:54:00
3:54 AM,43.0,41.0,93,29.99,10.0,Calm,Calm,-,N/A,,Clear,0,2012-01-27 09:54:00
4:54 AM,44.1,41.0,89,30.00,10.0,West,3.5,-,N/A,,Clear,270,2012-01-27 10:54:00
5:54 AM,39.0,37.9,96,30.03,10.0,South,3.5,-,N/A,,Clear,180,2012-01-27 11:54:00
6:54 AM,42.1,39.9,92,30.05,9.0,Calm,Calm,-,N/A,,Clear,0,2012-01-27 12:54:00
7:54 AM,44.1,41.0,89,30.08,8.0,Calm,Calm,-,N/A,,Clear,0,2012-01-27 13:54:00
8:54 AM,50.0,41.0,71,30.12,10.0,Variable,3.5,-,N/A,,Clear,0,2012-01-27 14:54:00
9:54 AM,51.1,39.0,63,30.12,10.0,Variable,3.5,-,N/A,,Clear,0,2012-01-27 15:54:00
10:54 AM,54.0,39.0,57,30.13,10.0,Calm,Calm,-,N/A,,Clear,0,2012-01-27 16:54:00
11:54 AM,57.9,34.0,41,30.11,10.0,NW,5.8,-,N/A,,Clear,320,2012-01-27 17:54:00
12:54 PM,59.0,33.8,39,30.08,10.0,South,3.5,-,N/A,,Clear,180,2012-01-27 18:54:00
1:54 PM,60.1,33.1,36,30.06,10.0,Calm,Calm,-,N/A,,Clear,0,2012-01-27 19:54:00
2:54 PM,62.1,35.1,37,30.04,10.0,Calm,Calm,-,N/A,,Clear,0,2012-01-27 20:54:00
3:54 PM,61.0,36.0,39,30.04,10.0,SSW,5.8,-,N/A,,Clear,210,2012-01-27 21:54:00
4:54 PM,60.1,34.0,38,30.03,10.0,South,3.5,-,N/A,,Clear,180,2012-01-27 22:54:00
5:54 PM,52.0,37.9,59,30.04,10.0,ESE,3.5,-,N/A,,Clear,120,2012-01-27 23:54:00
6:54 PM,48.0,39.9,74,30.05,10.0,Calm,Calm,-,N/A,,Clear,0,2012-01-28 00:54:00
7:54 PM,46.0,37.9,73,30.06,10.0,Calm,Calm,-,N/A,,Clear,0,2012-01-28 01:54:00
8:54 PM,44.1,37.9,79,30.06,10.0,SSE,5.8,-,N/A,,Clear,150,2012-01-28 02:54:00
9:54 PM,45.0,37.9,76,30.07,10.0,SSE,3.5,-,N/A,,Clear,160,2012-01-28 03:54:00
10:54 PM,45.0,37.0,74,30.09,10.0,SSE,5.8,-,N/A,,Clear,160,2012-01-28 04:54:00
11:54 PM,44.1,36.0,73,30.12,10.0,Calm,Calm,-,N/A,,Clear,0,2012-01-28 05:54:00